TimeEST,TemperatureF,Dew PointF,Humidity,Sea Level PressureIn,VisibilityMPH,Wind Direction,Wind SpeedMPH,Gust SpeedMPH,PrecipitationIn,Events,Conditions,WindDirDegrees,DateUTC
12:53 AM,42.1,30.9,65,30.17,10.0,West,5.8,-,N/A,,Clear,270,2013-01-10 05:53:00
1:53 AM,41.0,30.0,65,30.21,10.0,West,4.6,-,N/A,,Clear,280,2013-01-10 06:53:00
2:53 AM,43.0,21.0,42,30.25,10.0,NW,12.7,23.0,N/A,,Clear,320,2013-01-10 07:53:00
3:53 AM,43.0,21.9,43,30.26,10.0,NW,17.3,24.2,N/A,,Clear,310,2013-01-10 08:53:00
4:53 AM,43.0,23.0,45,30.29,10.0,NW,11.5,20.7,N/A,,Clear,310,2013-01-10 09:53:00
5:53 AM,39.9,19.9,45,30.31,10.0,NW,13.8,25.3,N/A,,Clear,320,2013-01-10 10:53:00
6:53 AM,39.0,21.0,49,30.38,10.0,NW,11.5,-,N/A,,Clear,320,2013-01-10 11:53:00
7:53 AM,36.0,21.9,57,30.42,10.0,NW,3.5,-,N/A,,Clear,310,2013-01-10 12:53:00
8:53 AM,41.0,21.0,45,30.45,10.0,NW,9.2,-,N/A,,Clear,320,2013-01-10 13:53:00
9:53 AM,43.0,21.0,42,30.46,10.0,NW,11.5,17.3,N/A,,Clear,320,2013-01-10 14:53:00
10:53 AM,44.1,21.0,40,30.46,10.0,WNW,5.8,18.4,N/A,,Clear,290,2013-01-10 15:53:00
11:53 AM,45.0,19.9,37,30.43,10.0,WNW,18.4,28.8,N/A,,Clear,300,2013-01-10 16:53:00
12:53 PM,46.0,19.9,35,30.41,10.0,NNW,13.8,24.2,N/A,,Clear,330,2013-01-10 17:53:00
1:53 PM,46.9,19.9,34,30.42,10.0,NW,15.0,23.0,N/A,,Clear,320,2013-01-10 18:53:00
2:53 PM,46.0,19.9,35,30.44,10.0,NNW,12.7,19.6,N/A,,Clear,340,2013-01-10 19:53:00
3:53 PM,45.0,19.9,37,30.47,10.0,NW,11.5,-,N/A,,Clear,320,2013-01-10 20:53:00
4:53 PM,42.1,21.0,43,30.48,10.0,NNW,8.1,-,N/A,,Clear,340,2013-01-10 21:53:00
5:53 PM,36.0,21.9,57,30.51,10.0,NW,3.5,-,N/A,,Clear,310,2013-01-10 22:53:00
6:53 PM,32.0,23.0,69,30.52,10.0,Calm,Calm,-,N/A,,Clear,0,2013-01-10 23:53:00
7:53 PM,30.0,23.0,75,30.54,10.0,Calm,Calm,-,N/A,,Clear,0,2013-01-11 00:53:00
8:53 PM,28.9,21.9,75,30.55,10.0,Calm,Calm,-,N/A,,Clear,0,2013-01-11 01:53:00
9:53 PM,28.9,23.0,78,30.55,10.0,Calm,Calm,-,N/A,,Clear,0,2013-01-11 02:53:00
10:53 PM,26.1,21.9,84,30.54,10.0,SSE,3.5,-,N/A,,Clear,160,2013-01-11 03:53:00
11:53 PM,26.1,21.9,84,30.55,10.0,SE,3.5,-,N/A,,Clear,140,2013-01-11 04:53:00